Location: Unspecified
(0.0000°N, 0.0000°E)
Time: 19:00:57
(UTC+00:00)

SR - Pass Details

Date: 19 November 2019
Orbit: 573 x 882 km, 66.7° (Epoch: 08 December)

Event Time Altitude Azimuth Distance (km) Brightness Sun altitude
Rises 01:08:35 0° 341° (NNW) 3,377 - -61.9°
Reaches altitude 10° 01:11:07 10° 342° (NNW) 2,408 - -61.4°
Maximum altitude 01:16:40 84° 70° (ENE) 782 - -60.4°
Drops below altitude 10° 01:21:46 10° 158° (SSE) 2,217 - -59.4°
Sets 01:24:01 0° 159° (SSE) 3,090 - -59.0°
